^^
No Wait Weather (KNEBELLE1) Station Historical Data
 
Daily Summary for January 19, 2020 Units:  English    Metric   Both
Daily Weekly Monthly Yearly Custom
  Current: High: Low: Average:
Temperature: 9.3 °F 10 °F 0.5 °F 4.4 °F
Dew Point: -4.33 °F -2.92 °F -11.1 °F -8 °F
Humidity: 53% 58% 52% 55%
Wind Speed: 0mph 10mph 0mph 2.8mph
Wind Gust: 4mph 16mph - -
WindCalm - - SW
Pressure: 30.57 in 30.62 in 30.39 in -
Precipitation: 0 in      
Historical Graphs
 
 
Tabular Data for January 19, 2020
Time Temperature Dew Point Pressure Wind Wind Speed Wind Gust Humidity Rainfall Rate (Hourly) solar
00:00 8.8 °F -2.92 °F 30.39 in North 3 mph 4 mph 58% 0 in WeatherCatV3.05B27 W/m2
00:05 8.6 °F -3.11 °F 30.39 in North 7 mph 7 mph 58% 0 in WeatherCatV3.05B27 W/m2
00:10 8.4 °F -3.66 °F 30.39 in NNE 3 mph 14 mph 57% 0 in WeatherCatV3.05B27 W/m2
00:15 8.3 °F -3.75 °F 30.40 in North 4 mph 10 mph 57% 0 in WeatherCatV3.05B27 W/m2
00:20 8.1 °F -3.58 °F 30.40 in NNW 9 mph 11 mph 58% 0 in WeatherCatV3.05B27 W/m2
00:25 7.9 °F -3.77 °F 30.40 in NNW 2 mph 9 mph 58% 0 in WeatherCatV3.05B27 W/m2
00:30 7.6 °F -4.05 °F 30.40 in North 5 mph 9 mph 58% 0 in WeatherCatV3.05B27 W/m2
00:35 7.4 °F -4.24 °F 30.40 in NNW 5 mph 6 mph 58% 0 in WeatherCatV3.05B27 W/m2
00:40 7.2 °F -4.43 °F 30.40 in NNW 4 mph 7 mph 58% 0 in WeatherCatV3.05B27 W/m2
00:45 7 °F -4.62 °F 30.40 in North 5 mph 5 mph 58% 0 in WeatherCatV3.05B27 W/m2
00:50 7 °F -4.62 °F 30.40 in North 1 mph 6 mph 58% 0 in WeatherCatV3.05B27 W/m2
00:55 6.9 °F -5.07 °F 30.40 in North 2 mph 10 mph 57% 0 in WeatherCatV3.05B27 W/m2
01:00 6.7 °F -5.63 °F 30.40 in North 3 mph 13 mph 56% 0 in WeatherCatV3.05B27 W/m2
01:05 6.5 °F -6.18 °F 30.40 in NNW 6 mph 10 mph 55% 0 in WeatherCatV3.05B27 W/m2
01:10 6.3 °F -6.37 °F 30.40 in NNW 10 mph 13 mph 55% 0 in WeatherCatV3.05B27 W/m2
01:15 6.3 °F -6.75 °F 30.40 in North 4 mph 12 mph 54% 0 in WeatherCatV3.05B27 W/m2
01:20 6.1 °F -7.32 °F 30.40 in North 3 mph 9 mph 53% 0 in WeatherCatV3.05B27 W/m2
01:25 6 °F -7.41 °F 30.40 in North 4 mph 16 mph 53% 0 in WeatherCatV3.05B27 W/m2
01:30 5.8 °F -7.99 °F 30.41 in NW 2 mph 9 mph 52% 0 in WeatherCatV3.05B27 W/m2
01:35 5.8 °F -7.6 °F 30.41 in North 2 mph 13 mph 53% 0 in WeatherCatV3.05B27 W/m2
01:40 5.6 °F -7.4 °F 30.41 in North 4 mph 10 mph 54% 0 in WeatherCatV3.05B27 W/m2
01:45 5.4 °F -7.59 °F 30.41 in NNW 8 mph 15 mph 54% 0 in WeatherCatV3.05B27 W/m2
01:50 5.2 °F -7.4 °F 30.41 in North 3 mph 6 mph 55% 0 in WeatherCatV3.05B27 W/m2
01:55 5 °F -7.59 °F 30.41 in North 2 mph 13 mph 55% 0 in WeatherCatV3.05B27 W/m2
02:00 5 °F -7.59 °F 30.42 in NNW 4 mph 11 mph 55% 0 in WeatherCatV3.05B27 W/m2
02:05 4.8 °F -7.41 °F 30.42 in NW 2 mph 7 mph 56% 0 in WeatherCatV3.05B27 W/m2
02:10 4.8 °F -7.78 °F 30.42 in North 4 mph 6 mph 55% 0 in WeatherCatV3.05B27 W/m2
02:15 4.7 °F -7.51 °F 30.41 in West 4 mph 5 mph 56% 0 in WeatherCatV3.05B27 W/m2
02:20 4.5 °F -7.69 °F 30.41 in NNW 2 mph 13 mph 56% 0 in WeatherCatV3.05B27 W/m2
02:25 4.5 °F -8.06 °F 30.41 in North 2 mph 9 mph 55% 0 in WeatherCatV3.05B27 W/m2
02:30 4.3 °F -8.25 °F 30.42 in NNW 2 mph 11 mph 55% 0 in WeatherCatV3.05B27 W/m2
02:35 4.3 °F -8.25 °F 30.42 in North 5 mph 11 mph 55% 0 in WeatherCatV3.05B27 W/m2
02:40 4.1 °F -8.44 °F 30.42 in Calm   3 mph 55% 0 in WeatherCatV3.05B27 W/m2
02:45 4.1 °F -8.07 °F 30.44 in North 6 mph 7 mph 56% 0 in WeatherCatV3.05B27 W/m2
02:50 3.9 °F -8.26 °F 30.44 in NNW 2 mph 9 mph 56% 0 in WeatherCatV3.05B27 W/m2
02:55 3.7 °F -8.45 °F 30.44 in North 1 mph 5 mph 56% 0 in WeatherCatV3.05B27 W/m2
03:00 3.7 °F -8.45 °F 30.45 in NW 4 mph 4 mph 56% 0 in WeatherCatV3.05B27 W/m2
03:05 3.7 °F -8.45 °F 30.45 in NNW 1 mph 1 mph 56% 0 in WeatherCatV3.05B27 W/m2
03:10 3.5 °F -8.63 °F 30.45 in NW 2 mph 5 mph 56% 0 in WeatherCatV3.05B27 W/m2
03:15 3.5 °F -8.63 °F 30.46 in NNW 3 mph 9 mph 56% 0 in WeatherCatV3.05B27 W/m2
03:20 3.5 °F -8.63 °F 30.46 in Calm   4 mph 56% 0 in WeatherCatV3.05B27 W/m2
03:25 3.4 °F -8.37 °F 30.46 in NNW 4 mph 4 mph 57% 0 in WeatherCatV3.05B27 W/m2
03:30 3.4 °F -8.37 °F 30.47 in Calm   6 mph 57% 0 in WeatherCatV3.05B27 W/m2
03:35 3.2 °F -8.56 °F 30.47 in Calm   3 mph 57% 0 in WeatherCatV3.05B27 W/m2
03:40 3.4 °F -8.37 °F 30.47 in North 1 mph 5 mph 57% 0 in WeatherCatV3.05B27 W/m2
03:45 3.4 °F -9.09 °F 30.47 in North 2 mph 4 mph 55% 0 in WeatherCatV3.05B27 W/m2
03:50 3.2 °F -9.28 °F 30.47 in NNW 2 mph 7 mph 55% 0 in WeatherCatV3.05B27 W/m2
03:55 3.2 °F -9.28 °F 30.47 in NNW 2 mph 12 mph 55% 0 in WeatherCatV3.05B27 W/m2
04:00 3 °F -9.47 °F 30.47 in NNW 2 mph 9 mph 55% 0 in WeatherCatV3.05B27 W/m2
04:05 3 °F -9.47 °F 30.47 in North 6 mph 6 mph 55% 0 in WeatherCatV3.05B27 W/m2
04:10 3 °F -9.47 °F 30.47 in North 2 mph 6 mph 55% 0 in WeatherCatV3.05B27 W/m2
04:15 2.8 °F -9.66 °F 30.48 in North 3 mph 9 mph 55% 0 in WeatherCatV3.05B27 W/m2
04:20 2.8 °F -9.66 °F 30.48 in NNE 1 mph 4 mph 55% 0 in WeatherCatV3.05B27 W/m2
04:25 2.6 °F -9.48 °F 30.48 in North 4 mph 6 mph 56% 0 in WeatherCatV3.05B27 W/m2
04:30 2.6 °F -9.12 °F 30.48 in North 1 mph 5 mph 57% 0 in WeatherCatV3.05B27 W/m2
04:35 2.6 °F -8.77 °F 30.48 in Calm   3 mph 58% 0 in WeatherCatV3.05B27 W/m2
04:40 2.4 °F -9.31 °F 30.48 in WNW 3 mph 9 mph 57% 0 in WeatherCatV3.05B27 W/m2
04:45 2.4 °F -9.31 °F 30.49 in North 4 mph 12 mph 57% 0 in WeatherCatV3.05B27 W/m2
04:50 2.4 °F -9.31 °F 30.49 in North 2 mph 11 mph 57% 0 in WeatherCatV3.05B27 W/m2
04:55 2.2 °F -9.5 °F 30.49 in NNW 1 mph 7 mph 57% 0 in WeatherCatV3.05B27 W/m2
05:00 2 °F -9.69 °F 30.49 in North 2 mph 4 mph 57% 0 in WeatherCatV3.05B27 W/m2
05:05 2 °F -9.34 °F 30.49 in North 1 mph 3 mph 58% 0 in WeatherCatV3.05B27 W/m2
05:10 2 °F -9.69 °F 30.49 in NNW 3 mph 7 mph 57% 0 in WeatherCatV3.05B27 W/m2
05:15 2 °F -10.04 °F 30.49 in NNW 1 mph 7 mph 56% 0 in WeatherCatV3.05B27 W/m2
05:20 1.8 °F -10.59 °F 30.49 in NNW 7 mph 7 mph 55% 0 in WeatherCatV3.05B27 W/m2
05:25 1.8 °F -10.59 °F 30.49 in NNW 5 mph 6 mph 55% 0 in WeatherCatV3.05B27 W/m2
05:30 1.8 °F -10.59 °F 30.50 in North 5 mph 5 mph 55% 0 in WeatherCatV3.05B27 W/m2
05:35 1.7 °F -10.69 °F 30.50 in Calm   12 mph 55% 0 in WeatherCatV3.05B27 W/m2
05:40 1.7 °F -10.69 °F 30.50 in Calm   7 mph 55% 0 in WeatherCatV3.05B27 W/m2
05:45 1.7 °F -10.69 °F 30.51 in North 5 mph 7 mph 55% 0 in WeatherCatV3.05B27 W/m2
05:50 1.7 °F -10.69 °F 30.51 in NNW 1 mph 6 mph 55% 0 in WeatherCatV3.05B27 W/m2
05:55 1.7 °F -10.33 °F 30.51 in North 4 mph 6 mph 56% 0 in WeatherCatV3.05B27 W/m2
06:00 1.5 °F -10.51 °F 30.51 in North 3 mph 5 mph 56% 0 in WeatherCatV3.05B27 W/m2
06:05 1.5 °F -10.16 °F 30.51 in North 1 mph 5 mph 57% 0 in WeatherCatV3.05B27 W/m2
06:10 1.3 °F -10.35 °F 30.51 in North 5 mph 5 mph 57% 0 in WeatherCatV3.05B27 W/m2
06:15 1.3 °F -10.35 °F 30.52 in North 5 mph 5 mph 57% 0 in WeatherCatV3.05B27 W/m2
06:20 1.3 °F -10 °F 30.52 in NNW 1 mph 7 mph 58% 0 in WeatherCatV3.05B27 W/m2
06:25 1.3 °F -10 °F 30.52 in North 2 mph 3 mph 58% 0 in WeatherCatV3.05B27 W/m2
06:30 1.1 °F -10.19 °F 30.52 in Calm   6 mph 58% 0 in WeatherCatV3.05B27 W/m2
06:35 1.1 °F -10.19 °F 30.52 in North 1 mph 4 mph 58% 0 in WeatherCatV3.05B27 W/m2
06:40 1.1 °F -10.19 °F 30.52 in North 3 mph 5 mph 58% 0 in WeatherCatV3.05B27 W/m2
06:45 1.1 °F -10.54 °F 30.53 in North 2 mph 12 mph 57% 0 in WeatherCatV3.05B27 W/m2
06:50 1.1 °F -10.89 °F 30.53 in NNW 4 mph 9 mph 56% 0 in WeatherCatV3.05B27 W/m2
06:55 1.1 °F -10.89 °F 30.53 in North 4 mph 11 mph 56% 0 in WeatherCatV3.05B27 W/m2
07:00 0.9 °F -11.08 °F 30.53 in North 2 mph 9 mph 56% 0 in WeatherCatV3.05B27 W/m2
07:05 0.9 °F -10.72 °F 30.53 in NNW 3 mph 9 mph 57% 0 in WeatherCatV3.05B27 W/m2
07:10 0.9 °F -10.72 °F 30.53 in North 2 mph 7 mph 57% 0 in WeatherCatV3.05B27 W/m2
07:15 0.7 °F -10.91 °F 30.53 in NNW 3 mph 7 mph 57% 0 in WeatherCatV3.05B27 W/m2
07:20 0.7 °F -10.91 °F 30.53 in North 2 mph 12 mph 57% 0 in WeatherCatV3.05B27 W/m2
07:25 0.7 °F -10.91 °F 30.53 in North 3 mph 9 mph 57% 0 in WeatherCatV3.05B27 W/m2
07:30 0.7 °F -10.91 °F 30.54 in North 1 mph 6 mph 57% 0 in WeatherCatV3.05B27 W/m2
07:35 0.7 °F -10.91 °F 30.54 in NNW 3 mph 5 mph 57% 0 in WeatherCatV3.05B27 W/m2
07:40 0.5 °F -11.1 °F 30.54 in NNW 3 mph 9 mph 57% 0 in WeatherCatV3.05B27 W/m2
07:45 0.5 °F -10.75 °F 30.54 in NNW 3 mph 5 mph 58% 0 in WeatherCatV3.05B27 W/m2
07:50 0.5 °F -10.75 °F 30.54 in North 5 mph 7 mph 58% 0 in WeatherCatV3.05B27 W/m2
07:55 0.5 °F -10.75 °F 30.54 in NNW 3 mph 8 mph 58% 0 in WeatherCatV3.05B27 W/m2
08:00 0.5 °F -10.75 °F 30.55 in North 2 mph 7 mph 58% 0 in WeatherCatV3.05B27 W/m2
08:05 0.5 °F -10.75 °F 30.55 in North 2 mph 10 mph 58% 0 in WeatherCatV3.05B27 W/m2
08:10 0.5 °F -11.1 °F 30.55 in Calm   9 mph 57% 0 in WeatherCatV3.05B27 W/m2
08:15 0.5 °F -11.1 °F 30.56 in North 4 mph 7 mph 57% 0 in WeatherCatV3.05B27 W/m2
08:20 0.7 °F -10.91 °F 30.56 in NNW 1 mph 5 mph 57% 0 in WeatherCatV3.05B27 W/m2
08:25 0.7 °F -10.56 °F 30.56 in North 6 mph 6 mph 58% 0 in WeatherCatV3.05B27 W/m2
08:30 0.9 °F -10.72 °F 30.57 in NW 1 mph 3 mph 57% 0 in WeatherCatV3.05B27 W/m2
08:35 0.9 °F -10.72 °F 30.57 in North 1 mph 6 mph 57% 0 in WeatherCatV3.05B27 W/m2
08:40 1.1 °F -10.54 °F 30.57 in NNW 9 mph 9 mph 57% 0 in WeatherCatV3.05B27 W/m2
08:45 1.1 °F -10.54 °F 30.56 in North 4 mph 7 mph 57% 0 in WeatherCatV3.05B27 W/m2
08:50 1.1 °F -10.54 °F 30.56 in NNE 3 mph 7 mph 57% 0 in WeatherCatV3.05B27 W/m2
08:55 1.1 °F -10.54 °F 30.56 in Calm   9 mph 57% 0 in WeatherCatV3.05B27 W/m2
09:00 1.1 °F -10.54 °F 30.57 in Calm   4 mph 57% 0 in WeatherCatV3.05B27 W/m2
09:05 1.1 °F -10.54 °F 30.57 in NNE 4 mph 9 mph 57% 0 in WeatherCatV3.05B27 W/m2
09:10 1.3 °F -10.7 °F 30.57 in WNW 2 mph 5 mph 56% 0 in WeatherCatV3.05B27 W/m2
09:15 1.5 °F -10.51 °F 30.58 in North 3 mph 5 mph 56% 0 in WeatherCatV3.05B27 W/m2
09:20 1.5 °F -10.88 °F 30.58 in NNE 3 mph 3 mph 55% 0 in WeatherCatV3.05B27 W/m2
09:25 1.7 °F -10.69 °F 30.58 in North 3 mph 6 mph 55% 0 in WeatherCatV3.05B27 W/m2
09:30 1.8 °F -10.59 °F 30.58 in North 5 mph 7 mph 55% 0 in WeatherCatV3.05B27 W/m2
09:35 1.8 °F -10.96 °F 30.58 in North 2 mph 9 mph 54% 0 in WeatherCatV3.05B27 W/m2
09:40 1.8 °F -10.96 °F 30.58 in North 6 mph 6 mph 54% 0 in WeatherCatV3.05B27 W/m2
09:45 1.8 °F -10.96 °F 30.59 in North 2 mph 7 mph 54% 0 in WeatherCatV3.05B27 W/m2
09:50 2 °F -10.78 °F 30.59 in North 2 mph 4 mph 54% 0 in WeatherCatV3.05B27 W/m2
09:55 2 °F -10.78 °F 30.59 in North 4 mph 11 mph 54% 0 in WeatherCatV3.05B27 W/m2
10:00 2.2 °F -10.96 °F 30.59 in North 4 mph 10 mph 53% 0 in WeatherCatV3.05B27 W/m2
10:05 2.4 °F -10.4 °F 30.59 in North 2 mph 4 mph 54% 0 in WeatherCatV3.05B27 W/m2
10:10 2.6 °F -10.21 °F 30.59 in North 4 mph 5 mph 54% 0 in WeatherCatV3.05B27 W/m2
10:15 2.8 °F -10.03 °F 30.59 in North 3 mph 10 mph 54% 0 in WeatherCatV3.05B27 W/m2
10:20 2.8 °F -10.03 °F 30.59 in NNW 3 mph 7 mph 54% 0 in WeatherCatV3.05B27 W/m2
10:25 3 °F -9.84 °F 30.59 in North 7 mph 7 mph 54% 0 in WeatherCatV3.05B27 W/m2
10:30 3.2 °F -9.65 °F 30.60 in North 1 mph 5 mph 54% 0 in WeatherCatV3.05B27 W/m2
10:35 3.2 °F -9.65 °F 30.60 in North 4 mph 6 mph 54% 0 in WeatherCatV3.05B27 W/m2
10:40 3.2 °F -9.65 °F 30.60 in NNW 10 mph 10 mph 54% 0 in WeatherCatV3.05B27 W/m2
10:45 3.4 °F -9.09 °F 30.61 in North 2 mph 6 mph 55% 0 in WeatherCatV3.05B27 W/m2
10:50 3.5 °F -9.37 °F 30.61 in Calm   3 mph 54% 0 in WeatherCatV3.05B27 W/m2
10:55 3.7 °F -9.18 °F 30.61 in North 2 mph 5 mph 54% 0 in WeatherCatV3.05B27 W/m2
11:00 3.9 °F -9 °F 30.62 in Calm   10 mph 54% 0 in WeatherCatV3.05B27 W/m2
11:05 3.9 °F -9 °F 30.62 in NNW 5 mph 5 mph 54% 0 in WeatherCatV3.05B27 W/m2
11:10 4.1 °F -8.44 °F 30.62 in North 5 mph 6 mph 55% 0 in WeatherCatV3.05B27 W/m2
11:15 3.9 °F -9 °F 30.62 in NNW 6 mph 10 mph 54% 0 in WeatherCatV3.05B27 W/m2
11:20 3.9 °F -9 °F 30.62 in NNW 1 mph 5 mph 54% 0 in WeatherCatV3.05B27 W/m2
11:25 4.3 °F -8.25 °F 30.62 in North 3 mph 6 mph 55% 0 in WeatherCatV3.05B27 W/m2
11:30 4.3 °F -8.62 °F 30.62 in North 3 mph 10 mph 54% 0 in WeatherCatV3.05B27 W/m2
11:35 4.5 °F -8.43 °F 30.62 in North 3 mph 10 mph 54% 0 in WeatherCatV3.05B27 W/m2
11:40 4.7 °F -8.25 °F 30.62 in Calm     54% 0 in WeatherCatV3.05B27 W/m2
11:45 5 °F -7.97 °F 30.62 in North 7 mph 7 mph 54% 0 in WeatherCatV3.05B27 W/m2
11:50 5.4 °F -7.59 °F 30.62 in NNE 2 mph 7 mph 54% 0 in WeatherCatV3.05B27 W/m2
11:55 5.6 °F -7.03 °F 30.62 in North 5 mph 9 mph 55% 0 in WeatherCatV3.05B27 W/m2
12:00 5.8 °F -6.84 °F 30.61 in North 3 mph 7 mph 55% 0 in WeatherCatV3.05B27 W/m2
12:05 6 °F -7.03 °F 30.61 in NNE 4 mph 10 mph 54% 0 in WeatherCatV3.05B27 W/m2
12:10 6 °F -7.03 °F 30.61 in North 2 mph 4 mph 54% 0 in WeatherCatV3.05B27 W/m2
12:15 6.1 °F -6.56 °F 30.61 in NNW 4 mph 5 mph 55% 0 in WeatherCatV3.05B27 W/m2
12:20 6.3 °F -6.75 °F 30.61 in North 2 mph 5 mph 54% 0 in WeatherCatV3.05B27 W/m2
12:25 6.5 °F -6.56 °F 30.61 in Calm   7 mph 54% 0 in WeatherCatV3.05B27 W/m2
12:30 6.3 °F -6.75 °F 30.61 in NNE 1 mph 7 mph 54% 0 in WeatherCatV3.05B27 W/m2
12:35 6.3 °F -6.75 °F 30.61 in Calm   6 mph 54% 0 in WeatherCatV3.05B27 W/m2
12:40 6.7 °F -6 °F 30.61 in North 3 mph 3 mph 55% 0 in WeatherCatV3.05B27 W/m2
12:45 7 °F -5.72 °F 30.61 in Calm     55% 0 in WeatherCatV3.05B27 W/m2
12:50 7 °F -6.09 °F 30.61 in North 1 mph 7 mph 54% 0 in WeatherCatV3.05B27 W/m2
12:55 7.2 °F -5.91 °F 30.61 in Calm   10 mph 54% 0 in WeatherCatV3.05B27 W/m2
13:00 7.6 °F -5.15 °F 30.61 in North 1 mph 1 mph 55% 0 in WeatherCatV3.05B27 W/m2
13:05 7.6 °F -5.53 °F 30.61 in Calm   6 mph 54% 0 in WeatherCatV3.05B27 W/m2
13:10 7.6 °F -5.53 °F 30.61 in North 2 mph 7 mph 54% 0 in WeatherCatV3.05B27 W/m2
13:15 7.7 °F -5.06 °F 30.60 in North 1 mph 6 mph 55% 0 in WeatherCatV3.05B27 W/m2
13:20 7.7 °F -5.06 °F 30.60 in North 3 mph 7 mph 55% 0 in WeatherCatV3.05B27 W/m2
13:25 7.6 °F -5.53 °F 30.60 in North 1 mph 7 mph 54% 0 in WeatherCatV3.05B27 W/m2
13:30 7.6 °F -5.53 °F 30.60 in NNE 2 mph 11 mph 54% 0 in WeatherCatV3.05B27 W/m2
13:35 7.7 °F -5.06 °F 30.60 in North 3 mph 9 mph 55% 0 in WeatherCatV3.05B27 W/m2
13:40 7.7 °F -5.44 °F 30.60 in North 4 mph 7 mph 54% 0 in WeatherCatV3.05B27 W/m2
13:45 7.7 °F -5.06 °F 30.59 in North 3 mph 6 mph 55% 0 in WeatherCatV3.05B27 W/m2
13:50 8.1 °F -4.68 °F 30.59 in Calm   6 mph 55% 0 in WeatherCatV3.05B27 W/m2
13:55 8.3 °F -4.5 °F 30.59 in Calm   5 mph 55% 0 in WeatherCatV3.05B27 W/m2
14:00 8.4 °F -4.78 °F 30.59 in Calm   5 mph 54% 0 in WeatherCatV3.05B27 W/m2
14:05 8.6 °F -4.22 °F 30.59 in North 2 mph 2 mph 55% 0 in WeatherCatV3.05B27 W/m2
14:10 8.6 °F -4.6 °F 30.59 in NNE 3 mph 8 mph 54% 0 in WeatherCatV3.05B27 W/m2
14:15 8.6 °F -4.22 °F 30.59 in North 1 mph 10 mph 55% 0 in WeatherCatV3.05B27 W/m2
14:20 8.8 °F -4.03 °F 30.59 in North 3 mph 6 mph 55% 0 in WeatherCatV3.05B27 W/m2
14:25 8.8 °F -4.41 °F 30.59 in North 9 mph 9 mph 54% 0 in WeatherCatV3.05B27 W/m2
14:30 8.6 °F -4.6 °F 30.58 in North 4 mph 5 mph 54% 0 in WeatherCatV3.05B27 W/m2
14:35 8.6 °F -4.6 °F 30.58 in North 3 mph 9 mph 54% 0 in WeatherCatV3.05B27 W/m2
14:40 8.8 °F -4.41 °F 30.58 in North 3 mph 7 mph 54% 0 in WeatherCatV3.05B27 W/m2
14:45 9 °F -4.22 °F 30.58 in North 8 mph 8 mph 54% 0 in WeatherCatV3.05B27 W/m2
14:50 9 °F -4.61 °F 30.58 in North 1 mph 9 mph 53% 0 in WeatherCatV3.05B27 W/m2
14:55 9 °F -4.22 °F 30.58 in Calm   5 mph 54% 0 in WeatherCatV3.05B27 W/m2
15:00 9.2 °F -4.42 °F 30.57 in North 4 mph 9 mph 53% 0 in WeatherCatV3.05B27 W/m2
15:05 9.3 °F -4.72 °F 30.57 in North 6 mph 6 mph 52% 0 in WeatherCatV3.05B27 W/m2
15:10 9.2 °F -4.42 °F 30.57 in North 5 mph 5 mph 53% 0 in WeatherCatV3.05B27 W/m2
15:15 9.3 °F -4.33 °F 30.58 in North 2 mph 4 mph 53% 0 in WeatherCatV3.05B27 W/m2
15:20 9.7 °F -3.96 °F 30.58 in NNW 3 mph 7 mph 53% 0 in WeatherCatV3.05B27 W/m2
15:25 9.7 °F -3.96 °F 30.58 in Calm   4 mph 53% 0 in WeatherCatV3.05B27 W/m2
15:30 10 °F -3.68 °F 30.58 in North 3 mph 5 mph 53% 0 in WeatherCatV3.05B27 W/m2
15:35 10 °F -4.07 °F 30.58 in Calm   1 mph 52% 0 in WeatherCatV3.05B27 W/m2
15:40 10 °F -3.68 °F 30.58 in North 1 mph 4 mph 53% 0 in WeatherCatV3.05B27 W/m2
15:45 10 °F -3.68 °F 30.58 in Calm   7 mph 53% 0 in WeatherCatV3.05B27 W/m2
15:50 9.9 °F -4.16 °F 30.58 in North 6 mph 6 mph 52% 0 in WeatherCatV3.05B27 W/m2
15:55 9.5 °F -4.54 °F 30.58 in NNE 4 mph 7 mph 52% 0 in WeatherCatV3.05B27 W/m2
16:00 9.3 °F -4.33 °F 30.57 in Calm   4 mph 53% 0 in WeatherCatV3.05B27 W/m2
Bellevue, Nebraska, USA
Compliments of Weather Underground - 2.75 mb